Location: Casilda
(33.0440°S, 61.1680°W)
Time: 10:56:48
(UTC-03:00)

ISS - Pass Details

Date: 18 October 2019
Orbit: 411 x 421 km, 51.6° (Epoch: 18 October)

Event Time Altitude Azimuth Distance (km) Brightness Sun altitude
Exits shadow 04:39:04 60° 44° (NE) 489 -3.5 -20.9°
Drops below altitude 10° 04:41:54 10° 45° (NE) 1,508 -0.7 -20.3°
Sets 04:43:59 0° 45° (NE) 2,366 0.3 -20.0°
